Regional Weather Roundup
Issued by NWS Mobile, AL

Home | Current Version | Previous Version | Text Only | Print | Product List | Glossary On
Versions: 1 2 3 4 5 6 7 8 9 10 11 12 13 14 15 16 17 18 19 20 21 22 23 24 25 26 27 28 29 30 31 32 33 34 35 36 37 38 39 40 41 42 43 44 45 46 47 48 49 50
000
ASUS44 KMOB 250316
RWRMOB
REGIONAL WEATHER ROUNDUP
NATIONAL WEATHER SERVICE MOBILE AL
1000 PM CDT SUN MAY 24 2015

ALZ061>064-250400-
COASTAL ALABAMA


CITY           SKY/WX    TMP DP  RH WIND       PRES   REMARKS
MOBILE REG APT MOCLDY    78  74  87 SE15G22   30.11R
BROOKLEY FIELD CLOUDY    80  74  81 SE15      30.12R
GULF SHORES    CLOUDY    79  74  85 SE13G20   30.12R

$$

ALZ051>060-250400-
INTERIOR SOUTHWEST AND SOUTH CENTRAL ALABAMA


CITY           SKY/WX    TMP DP  RH WIND       PRES   REMARKS
ANDALUSIA/OPP  CLEAR     76  69  79 SE3       30.16R
EVERGREEN      CLEAR     75  70  84 SE6       30.15R
FLORALA        CLEAR     71  69  93 CALM      30.17S
GREENVILLE     CLOUDY    76  68  76 S8        30.16R

$$

FLZ001>006-250400-
WESTERN FLORIDA PANHANDLE


CITY           SKY/WX    TMP DP  RH WIND       PRES   REMARKS
CRESTVIEW      CLEAR     73  70  90 E3        30.16R
DESTIN         CLEAR     80  74  81 SE8       30.13S
DUKE FIELD     FAIR      74  71  89 E3        30.14R
MARY ESTHER    PTCLDY    79  73  81 SE13G20   30.12S
MILTON         PTCLDY    76  71  85 SE5       30.14R
PENSACOLA      CLOUDY    78  73  84 SE15G22   30.13R
NAS PENSACOLA  MOCLDY    80  74  81 SE15      30.12R
VALPARAISO     PTCLDY    79  73  81 SE10      30.13S

$$

...MARINE OBSERVATIONS...

STATION/POSITION TIME  SKY/WX   TEMP    WIND        PRES    VSBY
                                AIR SEA DIR/SP/G
                 (UTC)          (F)     (DEG/KT/KT) (MB)    (MI)
PASCAGOULA       0200            81     140/ 17/ 24 1018.4R
PETIT BOIS ISL   0200            81     140/ 18/ 23 1019.2R
E DAUPHIN ISLAND 0300            80     130/ 20/ 22 1019.2R
MIDDLE BAY LIGHT 0200            80     140/ 23     1018.0R
USCG MOBILE BAY  0200            80 83  140/ 10/ 15 1018.3R
STATE DOCKS      0200            80 81              1019.3R
MEAHER PARK      0300            79     130/  8     1019.3R
FORT MORGAN      0200            80     150/ 23/ 25 1018.6R
12 S ORANGE BCH  0250            80 80  130/ 17/ 21 1018.8R
WVE H/P(F/S)=  5/ 6

PENSACOLA BAY    0200            80 83  150/  5/ 12 1020.1R
64 S DAUPHIN ISL 0250            80 78  140/ 19/ 21 1019.0R
WVE H/P(F/S)=  6/ 7

67 S FORT MORGAN 0230            80     140/ 23     1019.0R
115 SE PENSACOLA 0250            80 80  120/ 14/ 16 1020.4R
WVE H/P(F/S)=  4/ 6

MID GULF/42001   0250            82 82  120/ 12/ 14 1018.1R
WVE H/P(F/S)=  3/ 6

EAST GULF/42003  0250            81 82  110/ 14/ 16 1019.2R
WVE H/P(F/S)=  5/ 6


$$

...NEARBY LOCATIONS

CITY           SKY/WX    TMP DP  RH WIND       PRES   REMARKS
GULFPORT       LGT RAIN  81  75  82 SE22      30.07R
BILOXI         CLOUDY    80  76  86 S18G25    30.07R
PASCAGOULA     MOCLDY    79  74  84 SE13      30.09R
HATTIESBURG    CLOUDY    72  69  90 S3        30.10R
LAUREL         CLOUDY    73  57  56 SE8       30.10R
MERIDIAN       MOCLDY    74  71  91 S20G40    30.11R
MERIDIAN NAS   MOCLDY    73  70  90 SE6       30.10R
MONTGOMERY     PTCLDY    76  68  76 E6        30.15R
MAXWELL AFB    NOT AVBL
TROY           MOCLDY    78  68  71 S10       30.18R
FORT RUCKER    CLOUDY    74  70  87 CALM      30.16R
DALEVILLE      MOCLDY    73  71  93 CALM      30.16R
DOTHAN         PTCLDY    79  62  56 SE9       30.20R

$$

...OTHER SURROUNDING LOCATIONS...

CITY           SKY/WX    TMP DP  RH WIND       PRES   REMARKS
BIRMINGHAM     PTCLDY    71  67  87 E6        30.18R
TUSCALOOSA     MOCLDY    72  67  84 E8        30.12S
COLUMBUS GA    CLEAR     75  58  55 SE7       30.20R
PANAMA CITY    NOT AVBL
TALLAHASSEE    CLEAR     80  64  58 E10       30.18R
BATON ROUGE    LGT RAIN  71  69  93 E8        30.03R
NEW ORLEANS    TSTM      74  67  78 SE20G36   30.05R
SLIDELL        CLOUDY    81  75  82 S9        30.04R
JACKSON        TSTM      72  69  90 SE8       30.05S
MCCOMB         CLOUDY    76  73  91 SE7       30.05R

$$

...SURROUNDING MARINE OBSERVATIONS...

STATION/POSITION TIME  SKY/WX   TEMP    WIND        PRES    VSBY
                                AIR SEA DIR/SP/G
                 (UTC)          (F)     (DEG/KT/KT) (MB)    (MI)
WAVELAND         0200            81 82  160/ 19/ 24 1017.6R
PASCAGOULA RGN A 0200            81     150/ 17/ 22 1018.3R
PASCAGOULA PORT  0200               83                N/A
GRAND ISLE       0200            82 82  150/ 13/ 18 1016.9R
SOUTHWEST PASS   0300            81     160/ 17/ 19 1018.4R
PILOT STATION E  0200            81 75  160/ 12/ 15 1018.1R
SHELL BEACH      0200            81 83  140/ 16/ 19 1016.7R
PANAMA CITY      0200            81 83  140/  4/  8 1020.2R
APALACHICOLA     0200            81 81  120/  4/  7 1020.5R
TYNDALL TOWER C  0300            80     100/ 14/ 14 1021.3R
S APLCHCLA/42036 0250            81 80  110/ 14/ 16 1020.8R
WVE H/P(F/S)=  2/ 5


$$



USA.gov is the U.S. government's official web portal to all federal, state and local government web resources and services.